Location: Edemissen
(51.7689°N, 9.8634°E)
Time: 07:45:42
(UTC+00:00)

Orbus 7S? - Pass Details

Date: 15 June 2024
Orbit: 365 x 6246 km, 56.9° (Epoch: 03 July)

Event Time Altitude Azimuth Distance (km) Brightness Sun altitude
Rises 01:01:53 0° 298° (WNW) 2,225 6.5 -11.7°
Reaches altitude 10° 01:03:41 10° 293° (WNW) 1,374 5.4 -11.6°
Maximum altitude 01:06:19 56° 213° (SSW) 514 2.8 -11.4°
Drops below altitude 10° 01:10:07 10° 135° (SE) 1,972 6.0 -11.2°
Sets 01:13:13 0° 131° (SE) 3,406 7.2 -11.0°
